1501498800.33,26554,22.94,74798.0,11.59,11.17,11.21,0,*44
1501498801.55,26555,22.94,74796.3,11.59,11.21,11.27,0,*46
1501498802.82,26556,22.94,74796.0,11.57,11.23,11.27,0,*49
1501498804.01,26557,22.94,74800.3,11.59,11.17,11.21,0,*47
1501498805.23,26558,22.94,74798.8,11.61,11.17,11.17,0,*46
1501498806.45,26559,22.94,74796.3,11.61,11.21,11.21,0,*47
1501498807.7,26560,22.94,74798.3,11.61,11.21,11.27,0,*4B
1501498808.94,26561,22.94,74802.0,11.61,11.21,11.27,0,*4A
1501498810.21,26562,22.94,74800.3,11.61,11.27,11.31,0,*48
1501498811.48,26563,22.94,74800.0,11.61,11.37,11.31,0,*48
1501498812.76,26564,22.94,74796.8,11.61,11.37,11.37,0,*49
1501498814.04,26565,22.94,74796.3,11.61,11.37,11.37,0,*48
1501498815.31,26566,22.94,74798.3,11.61,11.31,11.31,0,*4B
1501498816.58,26567,22.94,74800.3,11.61,11.31,11.37,0,*4C
1501498817.83,26568,22.94,74802.0,11.61,11.41,11.51,0,*44
1501498819.05,26569,22.94,74798.5,11.61,11.51,11.51,0,*44
1501498820.24,26570,22.94,74798.5,11.63,11.51,11.51,0,*4E
1501498821.49,26571,22.94,74796.3,11.63,11.41,11.41,0,*4F
1501498822.74,26572,22.94,74796.8,11.63,11.33,11.41,0,*49
1501498823.99,26573,22.94,74798.3,11.63,11.33,11.33,0,*4D
1501498825.25,26574,22.94,74798.8,11.63,11.33,11.33,0,*4A
1501498826.5,26575,22.94,74796.3,11.63,11.41,11.45,0,*4F
1501498827.7,26576,22.94,74798.5,11.65,11.55,11.55,0,*4E
1501498828.9,26577,22.94,74800.5,11.65,11.51,11.55,0,*4B
1501498830.14,26578,22.94,74802.0,11.65,11.31,11.31,0,*40
1501498831.39,26579,22.94,74802.0,11.65,11.33,11.33,0,*41
1501498832.63,26580,22.94,74800.3,11.65,11.31,11.31,0,*47
1501498833.83,26581,22.94,74802.0,11.65,11.51,11.51,0,*46
1501498835.02,26582,22.94,74800.0,11.65,11.55,11.55,0,*45
1501498836.28,26583,22.94,74802.8,11.65,11.45,11.45,0,*44
1501498837.56,26584,22.94,74802.3,11.67,11.33,11.45,0,*40
1501498838.8,26585,22.94,74802.8,11.65,11.31,11.31,0,*42
1501498840.07,26586,22.94,74802.5,11.67,11.27,11.33,0,*46
1501498841.29,26587,22.94,74796.5,11.65,11.21,11.23,0,*42
1501498842.54,26588,22.94,74798.5,11.65,11.33,11.45,0,*4E
1501498843.79,26589,22.94,74798.3,11.65,11.33,11.41,0,*4B
1501498845.04,26590,22.94,74802.3,11.65,11.33,11.33,0,*46
1501498846.27,26591,22.94,74800.3,11.67,11.47,11.47,0,*45
1501498847.53,26592,22.94,74798.3,11.67,11.33,11.47,0,*45
1501498848.8,26593,22.94,74798.3,11.67,11.33,11.37,0,*43
1501498850.08,26594,22.94,74800.5,11.67,11.37,11.45,0,*45
1501498851.36,26595,22.94,74798.8,11.67,11.33,11.33,0,*41
1501498852.58,26596,22.94,74800.5,11.67,11.13,11.17,0,*46
1501498853.83,26597,22.94,74796.3,11.67,11.17,11.23,0,*44
1501498855.1,26598,22.94,74796.8,11.67,11.33,11.27,0,*49
1501498856.36,26599,22.94,74798.3,11.67,11.45,11.47,0,*4F
1501498857.64,26600,22.94,74798.5,11.67,11.45,11.45,0,*4E
1501498858.91,26601,22.94,74796.8,11.67,11.23,11.23,0,*4F
1501498860.18,26602,22.94,74798.8,11.67,11.23,11.27,0,*48
1501498861.45,26603,22.94,74798.8,11.67,11.23,11.27,0,*49
1501498862.72,26604,22.94,74798.0,11.67,11.27,11.33,0,*4F
1501498863.95,26605,22.94,74796.3,11.65,11.45,11.51,0,*4C
1501498865.23,26606,22.94,74798.3,11.67,11.33,11.45,0,*49
1501498866.51,26607,22.94,74798.8,11.67,11.37,11.45,0,*4C
1501498867.7,26608,22.94,74798.5,11.69,11.51,11.51,0,*48
1501498868.93,26609,22.94,74798.5,11.69,11.51,11.57,0,*4F
1501498870.18,26610,22.94,74798.5,11.69,11.61,11.61,0,*41
1501498871.41,26611,22.94,74796.3,11.67,11.55,11.55,0,*4E
1501498872.69,26612,22.94,74796.3,11.67,11.37,11.37,0,*4D
1501498873.89,26613,22.94,74798.3,11.69,11.47,11.51,0,*45
1501498875.14,26614,22.94,74798.3,11.71,11.51,11.57,0,*4A
1501498876.34,26615,22.94,74800.8,11.69,11.47,11.47,0,*44
1501498877.6,26616,22.94,74794.8,11.69,11.41,11.37,0,*46
1501498878.8,26617,22.94,74796.5,11.69,11.51,11.51,0,*46
1501498880.04,26618,22.94,74796.0,11.69,11.61,11.67,0,*4F
1501498881.31,26619,22.94,74798.5,11.71,11.67,11.67,0,*41
1501498882.59,26620,22.94,74796.3,11.71,11.57,11.61,0,*4E
1501498883.84,26621,22.94,74794.5,11.69,11.41,11.41,0,*43
1501498885.07,26622,22.94,74792.8,11.71,11.09,11.17,0,*46
1501498886.29,26623,22.94,74798.0,11.69,11.07,11.17,0,*40
1501498887.49,26624,22.94,74798.0,11.69,11.09,11.17,0,*49
1501498888.73,26625,22.94,74798.5,11.71,11.07,11.09,0,*40
1501498890.01,26626,22.94,74792.8,11.71,11.07,11.07,0,*4D
1501498891.26,26627,22.94,74798.0,11.69,11.07,11.07,0,*45
1501498892.51,26628,22.94,74796.3,11.69,11.03,11.07,0,*4E
1501498893.74,26629,22.94,74796.0,11.71,11.09,11.09,0,*42
1501498894.99,26630,22.94,74796.8,11.69,11.07,11.07,0,*43
1501498896.21,26631,22.94,74796.3,11.69,10.93,11.07,0,*4E
1501498897.41,26632,22.94,74798.3,11.69,10.93,10.93,0,*41
1501498898.6,26633,22.94,74798.5,11.69,11.17,11.17,0,*40
1501498899.85,26634,22.94,74798.3,11.69,11.31,11.31,0,*47
1501498901.1,26635,22.94,74796.5,11.69,11.37,11.41,0,*47
1501498902.37,26636,22.94,74796.0,11.71,11.41,11.41,0,*4C
1501498903.62,26637,22.94,74796.3,11.69,11.31,11.31,0,*44
1501498904.81,26638,22.94,74798.5,11.69,11.17,11.17,0,*4B
1501498906.01,26639,22.94,74798.0,11.69,11.21,11.21,0,*4A
1501498907.26,26640,22.94,74800.0,11.69,11.37,11.37,0,*44
1501498908.51,26641,22.94,74796.3,11.69,11.37,11.41,0,*44
1501498909.79,26642,22.94,74796.8,11.71,11.37,11.37,0,*4F
1501498911.05,26643,22.94,74802.3,11.69,11.37,11.41,0,*46
1501498912.29,26644,22.94,74798.5,11.69,11.27,11.27,0,*40
1501498913.51,26645,22.94,74798.0,11.69,11.07,11.17,0,*40
1501498914.74,26646,22.94,74800.5,11.71,11.09,11.17,0,*44
1501498916.01,26647,22.94,74796.3,11.71,11.31,11.31,0,*4A
1501498917.29,26648,22.94,74798.0,11.71,11.37,11.41,0,*44
1501498918.49,26649,22.94,74800.0,11.69,11.47,11.47,0,*4D
1501498919.74,26650,22.94,74798.8,11.69,11.27,11.27,0,*45
1501498920.98,26651,22.94,74798.5,11.69,11.27,11.31,0,*43
1501498922.24,26652,22.94,74792.8,11.71,11.37,11.47,0,*49
1501498923.51,26653,22.94,74796.5,11.71,11.27,11.37,0,*4E
1501498924.74,26654,22.94,74796.5,11.71,11.51,11.47,0,*4F
1501498925.96,26655,22.94,74796.5,11.71,11.51,11.51,0,*49
1501498927.24,26656,22.94,74798.0,11.71,11.57,11.57,0,*4A
1501498928.5,26657,22.94,74798.8,11.73,11.45,11.45,0,*49
1501498929.69,26658,22.94,74798.3,11.73,11.65,11.65,0,*46
1501498930.91,26659,22.94,74796.8,11.73,11.41,11.51,0,*46
1501498932.14,26660,22.94,74796.0,11.75,11.47,11.55,0,*48
1501498933.33,26661,22.94,74800.3,11.73,11.65,11.65,0,*4C
1501498934.59,26662,22.94,74800.8,11.75,11.67,11.67,0,*49
1501498935.8,26663,22.94,74802.8,11.75,11.81,11.81,0,*48
1501498937.07,26664,22.94,74798.8,11.75,11.75,11.75,0,*4F
1501498938.28,26665,22.94,74800.0,11.75,11.93,11.93,0,*4E
1501498939.55,26666,22.94,74802.3,11.79,12.05,12.05,0,*41
1501498940.82,26667,22.94,74798.3,11.79,11.71,11.79,0,*48
1501498942.07,26668,22.94,74804.0,11.81,11.57,11.57,0,*48
1501498943.33,26669,22.94,74802.0,11.81,11.57,11.61,0,*4C
1501498944.57,26670,22.94,74802.0,11.81,11.61,11.67,0,*47
1501498945.84,26671,22.94,74800.8,11.79,11.71,11.71,0,*47
1501498947.07,26672,22.94,74802.8,11.81,11.67,11.71,0,*44
1501498948.29,26673,22.94,74796.5,11.81,11.51,11.57,0,*44
1501498949.54,26674,22.94,74800.3,11.81,11.57,11.67,0,*46
1501498950.77,26675,22.94,74796.3,11.81,11.71,11.71,0,*44
1501498951.96,26676,22.94,74796.3,11.81,11.85,11.93,0,*40
1501498953.19,26677,22.94,74802.8,11.87,11.99,12.03,0,*40
1501498954.37,26678,22.94,74802.3,11.85,11.81,11.85,0,*49
1501498955.58,26679,22.94,74798.5,11.87,11.93,11.93,0,*4E
1501498956.8,26680,22.94,74798.0,11.87,11.93,11.93,0,*48
1501498958.05,26681,22.94,74796.5,11.87,12.03,12.09,0,*43
1501498959.25,26682,22.94,74796.5,11.89,11.65,11.75,0,*45
1501498960.48,26683,22.94,74800.5,11.89,11.67,11.67,0,*45
1501498961.73,26684,22.94,74794.8,11.89,11.79,11.79,0,*42
1501498962.94,26685,22.94,74792.5,11.89,11.79,11.85,0,*40
1501498964.14,26686,22.94,74794.5,11.89,11.47,11.55,0,*43
1501498965.37,26687,22.94,74796.8,11.89,11.67,11.75,0,*42
1501498966.63,26688,22.94,74796.3,11.91,11.71,11.79,0,*4F
1501498967.87,26689,22.94,74796.0,11.89,11.23,11.23,0,*4F
1501498969.09,26690,22.94,74794.0,11.87,10.69,10.69,0,*49
1501498970.37,26691,22.94,74796.8,11.87,10.79,10.79,0,*48
1501498971.56,26692,22.94,74794.5,11.85,10.85,10.89,0,*45
1501498972.83,26693,22.94,74794.0,11.87,10.71,10.71,0,*4A
1501498974.05,26694,22.94,74798.5,11.85,11.07,11.09,0,*41
1501498975.24,26695,22.94,74796.0,11.81,11.17,11.17,0,*4A
1501498976.46,26696,22.94,74794.8,11.81,11.47,11.41,0,*4F
1501498977.65,26697,22.94,74798.0,11.85,11.51,11.55,0,*48
1501498978.89,26698,22.94,74794.8,11.87,11.65,11.67,0,*43
1501498980.08,26699,22.94,74798.0,11.85,11.09,11.17,0,*4D
1501498981.28,26700,22.94,74798.3,11.85,11.09,11.17,0,*4C
1501498982.47,26701,22.94,74796.5,11.85,11.17,11.09,0,*4D
1501498983.69,26702,22.94,74796.0,11.85,10.79,10.85,0,*42
1501498984.9,26703,22.94,74796.3,11.85,10.89,10.95,0,*4D
1501498986.17,26704,22.94,74794.5,11.87,11.23,11.27,0,*41
1501498987.41,26705,22.94,74796.0,11.85,11.23,11.31,0,*45
1501498988.64,26706,22.94,74798.3,11.87,11.47,11.47,0,*47
1501498989.9,26707,22.94,74796.3,11.85,11.61,11.61,0,*44
1501498991.09,26708,22.94,74798.3,11.85,11.51,11.51,0,*4B
1501498992.28,26709,22.94,74796.3,11.85,11.51,11.51,0,*4A
1501498993.48,26710,22.94,74796.3,11.85,11.51,11.51,0,*42
1501498994.72,26711,22.94,74792.3,11.85,11.31,11.33,0,*41
1501498995.97,26712,22.94,74798.3,11.87,11.45,11.55,0,*43
1501498997.24,26713,22.94,74802.0,11.87,11.67,11.75,0,*40
1501498998.5,26714,22.94,74798.3,11.87,11.67,11.75,0,*47
1501498999.71,26715,22.94,74794.3,11.87,11.65,11.65,0,*45
1501499000.99,26716,22.94,74794.8,11.87,11.37,11.33,0,*42
1501499002.27,26717,22.94,74792.0,11.87,11.57,11.57,0,*47
1501499003.55,26718,22.94,74798.8,11.87,11.45,11.45,0,*48
1501499004.75,26719,22.94,74796.3,11.89,11.55,11.55,0,*47
1501499005.98,26720,22.94,74798.5,11.89,11.75,11.79,0,*41
1501499007.25,26721,22.94,74798.8,11.87,11.23,11.23,0,*42
1501499008.49,26722,22.94,74796.3,11.87,11.13,11.13,0,*41
1501499009.76,26723,22.94,74800.3,11.87,11.03,11.03,0,*40
1501499011.03,26724,22.94,74796.8,11.87,10.83,10.83,0,*47
1501499012.22,26725,22.94,74802.8,11.85,11.17,11.17,0,*44
1501499013.44,26726,22.94,74796.0,11.87,11.09,11.09,0,*45
1501499014.69,26727,22.94,74798.8,11.87,11.21,11.27,0,*42
1501499015.93,26728,22.94,74796.3,11.85,11.75,11.75,0,*49
1501499017.2,26729,22.94,74798.5,11.87,11.75,11.79,0,*46
1501499018.45,26730,22.94,74802.3,11.87,11.57,11.65,0,*43
1501499019.66,26731,22.94,74798.8,11.87,11.93,11.93,0,*43
1501499020.84,26732,22.94,74798.3,11.89,11.89,11.89,0,*4E
1501499022.03,26733,22.94,74796.8,11.89,11.89,11.81,0,*47
1501499023.23,26734,22.94,74794.5,11.89,11.47,11.55,0,*4B
1501499024.49,26735,22.94,74792.8,11.91,11.57,11.67,0,*43
1501499025.72,26736,22.94,74794.5,11.91,11.71,11.89,0,*44
1501499026.99,26737,22.94,74794.8,11.95,12.29,12.37,0,*49
1501499028.18,26738,22.94,74798.3,11.93,11.93,11.93,0,*4F
1501499029.45,26739,22.94,74796.3,11.95,12.05,12.09,0,*44
1501499030.69,26740,22.94,74798.3,11.95,11.93,12.05,0,*4A
1501499031.91,26741,22.94,74798.0,11.95,11.85,11.93,0,*40
1501499033.12,26742,22.94,74796.5,11.95,11.85,11.93,0,*43
1501499034.34,26743,22.94,74798.0,11.95,11.99,11.99,0,*45
1501499035.6,26744,22.94,74800.3,11.97,11.67,11.67,0,*40
1501499036.81,26745,22.94,74802.3,11.97,11.65,11.65,0,*41
1501499038.09,26746,22.94,74798.3,11.97,11.37,11.57,0,*44
1501499039.33,26747,22.94,74796.0,11.99,12.05,12.17,0,*4E
1501499040.57,26748,22.94,74798.5,11.99,12.57,12.57,0,*42
1501499041.83,26749,22.94,74794.0,12.05,12.17,12.17,0,*45
1501499043.1,26750,22.94,74794.0,12.01,12.05,12.13,0,*4E
1501499044.31,26751,22.94,74792.0,12.05,12.19,12.27,0,*41
1501499045.52,26752,22.94,74796.8,12.05,12.47,12.51,0,*48
1501499046.76,26753,22.94,74796.0,12.05,12.03,12.09,0,*44
1501499047.95,26754,22.94,74796.8,12.07,12.23,12.23,0,*4B
1501499049.19,26755,22.94,74798.8,12.07,12.05,12.05,0,*4A
1501499050.46,26756,22.94,74794.5,12.09,12.05,12.05,0,*47
1501499051.73,26757,22.94,74798.8,12.09,12.09,12.09,0,*46
1501499052.97,26758,22.94,74798.3,12.09,11.95,11.99,0,*45
1501499054.18,26759,22.94,74796.5,12.09,11.99,11.99,0,*48
1501499055.42,26760,22.94,74796.5,12.11,12.17,12.17,0,*4B
1501499056.65,26761,22.94,74798.3,12.11,11.99,12.09,0,*40
1501499057.87,26762,22.94,74798.5,12.11,12.17,12.23,0,*4E
1501499059.08,26763,22.94,74796.3,12.11,12.37,12.47,0,*4F
1501499060.28,26764,22.94,74796.3,12.15,12.39,12.39,0,*4B
1501499061.49,26765,22.94,74796.8,12.13,11.81,11.89,0,*44
1501499062.7,26766,22.94,74796.5,12.13,11.93,11.93,0,*4F
1501499063.93,26767,22.94,74798.5,12.15,11.55,11.61,0,*4F
1501499065.19,26768,22.94,74798.0,12.17,11.67,11.75,0,*46
1501499066.38,26769,22.94,74796.0,12.15,11.85,11.93,0,*41
1501499067.58,26770,22.94,74796.8,12.15,11.93,12.03,0,*44
1501499068.82,26771,22.94,74796.3,12.17,12.23,12.29,0,*47
1501499070.08,26772,22.94,74798.0,12.17,12.17,12.17,0,*4E
1501499071.29,26773,22.94,74798.8,12.17,12.19,12.19,0,*4F
1501499072.54,26774,22.94,74798.3,12.19,12.33,12.37,0,*42
1501499073.73,26775,22.94,74798.0,12.19,12.23,12.23,0,*47
1501499074.92,26776,22.94,74798.3,12.19,12.27,12.27,0,*44
1501499076.19,26777,22.94,74796.0,12.21,12.33,12.37,0,*4A
1501499077.41,26778,22.94,74798.8,12.21,12.27,12.27,0,*41
1501499078.62,26779,22.94,74800.5,12.23,12.29,12.47,0,*4A
1501499079.8,26780,22.94,74796.5,12.23,12.47,12.47,0,*44
1501499081.03,26781,22.94,74798.0,12.23,12.13,12.17,0,*41
1501499082.25,26782,22.94,74800.3,12.23,12.29,12.27,0,*48
1501499083.49,26783,22.94,74798.8,12.23,12.29,12.29,0,*47
1501499084.71,26784,22.94,74796.3,12.27,12.33,12.39,0,*4E
1501499085.96,26785,22.94,74798.0,12.27,12.29,12.33,0,*4E
1501499087.15,26786,22.94,74796.0,12.27,11.85,11.89,0,*4A
1501499088.42,26787,22.94,74800.3,12.29,12.05,12.05,0,*49
1501499089.61,26788,22.94,74798.8,12.27,12.19,12.27,0,*45
1501499090.84,26789,22.94,74798.5,12.27,11.99,12.09,0,*43
1501499092.08,26790,22.94,74792.5,12.27,12.09,12.17,0,*4E
1501499093.34,26791,22.94,74798.8,12.27,12.09,12.09,0,*40
1501499094.59,26792,22.94,74794.5,12.27,12.05,12.09,0,*4F
1501499095.8,26793,22.94,74792.0,12.27,12.33,12.39,0,*48
1501499097.02,26794,22.94,74792.5,12.31,12.51,12.53,0,*40
1501499098.29,26795,22.94,74796.0,12.29,12.33,12.33,0,*4A
1501499099.53,26796,22.94,74794.8,12.29,12.19,12.29,0,*4A
1501499100.71,26797,22.94,74798.0,12.31,12.19,12.19,0,*41
1501499101.9,26798,22.94,74802.8,12.31,12.19,12.23,0,*47
1501499103.17,26799,22.94,74798.5,12.29,11.75,11.75,0,*46
1501499104.38,26800,22.94,74796.0,12.31,11.79,11.89,0,*4F
1501499105.62,26801,22.94,74802.0,12.29,11.99,12.05,0,*4E
1501499106.89,26802,22.94,74796.5,12.29,12.05,12.09,0,*47
1501499108.11,26803,22.94,74798.0,12.31,12.29,12.23,0,*49
1501499109.38,26804,22.94,74796.3,12.29,12.05,12.09,0,*41
1501499110.62,26805,22.94,74796.5,12.29,11.95,11.99,0,*40
1501499111.85,26806,22.94,74800.5,12.31,11.57,11.47,0,*47
1501499113.13,26807,22.94,74794.3,12.29,11.61,11.61,0,*4E
1501499114.4,26808,22.94,74796.0,12.29,11.67,11.61,0,*47
1501499115.64,26809,22.94,74792.3,12.29,11.95,11.99,0,*4C
1501499116.91,26810,22.94,74792.8,12.29,12.05,12.05,0,*48
1501499118.16,26811,22.94,74796.0,12.29,11.99,12.05,0,*4F
1501499119.36,26812,22.94,74800.5,12.31,12.13,12.19,0,*49
1501499120.55,26813,22.94,74792.3,12.31,12.19,12.23,0,*4B
1501499121.79,26814,22.94,74794.0,12.29,11.99,12.05,0,*4A
1501499123.06,26815,22.94,74794.5,12.29,12.05,12.05,0,*4D
1501499124.25,26816,22.94,74794.5,12.31,11.89,11.93,0,*4C
1501499125.49,26817,22.94,74792.3,12.31,11.71,11.79,0,*4E
1501499126.7,26818,22.94,74794.8,12.31,11.81,11.71,0,*46
1501499127.96,26819,22.94,74798.0,12.29,11.95,11.95,0,*41
1501499129.18,26820,22.94,74796.8,12.31,11.99,12.09,0,*48
1501499130.37,26821,22.94,74798.5,12.31,12.03,12.03,0,*43
1501499131.62,26822,22.94,74794.0,12.31,12.33,12.37,0,*44
1501499132.83,26823,22.94,74792.0,12.31,12.19,12.29,0,*42
1501499134.05,26824,22.94,74794.0,12.31,12.37,12.43,0,*45
1501499135.29,26825,22.94,74792.3,12.31,12.29,12.29,0,*47
1501499136.56,26826,22.94,74792.0,12.33,12.09,12.13,0,*4D
1501499137.78,26827,22.94,74792.5,12.33,12.03,12.03,0,*47
1501499139.0,26828,22.94,74796.3,12.35,12.17,12.23,0,*49
1501499140.23,26829,22.94,74792.5,12.33,11.99,12.03,0,*49
1501499141.45,26830,22.94,74792.8,12.33,11.93,11.93,0,*41
1501499142.66,26831,22.94,74792.8,12.33,12.19,12.23,0,*49
1501499143.91,26832,22.94,74794.8,12.33,12.37,12.43,0,*40
1501499145.13,26833,22.94,74798.3,12.35,12.47,12.63,0,*42
1501499146.35,26834,22.94,74794.8,12.33,12.47,12.43,0,*41
1501499147.57,26835,22.94,74794.8,12.33,12.47,12.47,0,*44
1501499148.79,26836,22.94,74794.3,12.35,12.77,12.87,0,*4E
1501499150.01,26837,22.94,74792.0,12.37,12.73,12.81,0,*4F
1501499151.29,26838,22.94,74794.8,12.37,12.83,12.91,0,*4E
1501499152.53,26839,22.94,74794.5,12.39,12.53,12.63,0,*41
1501499153.75,26840,22.94,74792.8,12.39,12.53,12.61,0,*4D
1501499154.94,26841,22.94,74792.3,12.39,12.43,12.51,0,*4E
1501499156.16,26842,22.94,74792.3,12.39,12.53,12.61,0,*4F
1501499157.39,26843,22.94,74794.5,12.39,12.61,12.63,0,*4D
1501499158.66,26844,22.94,74794.0,12.41,12.57,12.63,0,*40
1501499159.91,26845,22.94,74792.8,12.41,12.67,12.73,0,*43
1501499161.11,26846,22.94,74792.5,12.43,12.43,12.51,0,*44
1501499162.29,26847,22.94,74790.5,12.43,12.47,12.51,0,*41
1501499163.48,26848,22.94,74792.8,12.43,12.51,12.51,0,*49
1501499164.7,26849,22.94,74794.5,12.43,12.51,12.57,0,*4E
1501499165.89,26850,22.94,74792.8,12.43,12.51,12.51,0,*40
1501499167.08,26851,22.94,74796.0,12.43,12.23,12.23,0,*41
1501499168.29,26852,22.94,74792.0,12.43,12.23,12.17,0,*45
1501499169.51,26853,22.94,74792.8,12.41,12.43,12.47,0,*45
1501499170.75,26854,22.94,74794.3,12.41,12.19,12.13,0,*4C
1501499171.97,26855,22.94,74796.0,12.41,12.43,12.51,0,*44
1501499173.19,26856,22.94,74792.0,12.43,12.33,12.27,0,*43
1501499174.46,26857,22.94,74794.0,12.41,12.09,12.09,0,*45
1501499175.73,26858,22.94,74794.5,12.41,12.29,12.29,0,*4A
1501499176.98,26859,22.94,74792.8,12.43,12.37,12.37,0,*49
1501499178.21,26860,22.94,74794.0,12.41,12.43,12.43,0,*41
1501499179.43,26861,22.94,74792.5,12.41,12.39,12.39,0,*40
1501499180.68,26862,22.94,74796.8,12.43,12.37,12.37,0,*41
1501499181.89,26863,22.94,74792.3,12.43,12.51,12.57,0,*46
1501499183.09,26864,22.94,74792.8,12.43,12.61,12.61,0,*47
1501499184.33,26865,22.94,74792.8,12.43,12.37,12.33,0,*42
1501499185.55,26866,22.94,74792.8,12.41,12.23,12.23,0,*47
1501499186.76,26867,22.94,74796.8,12.43,12.37,12.47,0,*43
1501499187.95,26868,22.94,74794.5,12.43,12.51,12.47,0,*4C
1501499189.15,26869,22.94,74792.8,12.43,12.51,12.61,0,*49
1501499190.34,26870,22.94,74794.5,12.43,12.51,12.47,0,*45
1501499191.56,26871,22.94,74788.8,12.41,12.23,12.23,0,*41
1501499192.75,26872,22.94,74788.8,12.43,12.27,12.27,0,*40
1501499193.97,26873,22.94,74794.0,12.43,12.03,12.05,0,*47
1501499195.18,26874,22.94,74788.0,12.43,12.37,12.47,0,*41
1501499196.42,26875,22.94,74786.8,12.41,12.29,12.23,0,*4F
1501499197.67,26876,22.94,74788.8,12.43,12.37,12.33,0,*40
1501499198.86,26877,22.94,74784.5,12.43,11.93,11.93,0,*45
1501499200.07,26878,22.94,74786.5,12.43,12.03,11.95,0,*46
1501499201.28,26879,22.94,74788.3,12.41,11.93,11.93,0,*49
1501499202.55,26880,22.94,74786.3,12.41,12.13,12.09,0,*44
1501499203.79,26881,22.94,74790.3,12.43,12.33,12.33,0,*4C
1501499205.02,26882,22.94,74790.3,12.41,11.99,12.03,0,*4D
1501499206.23,26883,22.94,74788.0,12.41,11.89,11.89,0,*4C
1501499207.46,26884,22.94,74790.5,12.41,12.03,12.03,0,*4B
1501499208.68,26885,22.94,74790.3,12.41,12.23,12.23,0,*4A
1501499209.9,26886,22.94,74790.5,12.41,11.89,12.03,0,*48
1501499211.15,26887,22.94,74788.8,12.41,11.99,12.09,0,*42
1501499212.34,26888,22.94,74788.3,12.39,12.19,12.27,0,*45
1501499213.53,26889,22.94,74784.0,12.39,11.85,11.89,0,*45
1501499214.75,26890,22.94,74786.0,12.39,11.95,11.99,0,*4D
1501499215.97,26891,22.94,74786.3,12.39,11.99,11.95,0,*4C
1501499217.16,26892,22.94,74788.0,12.43,11.85,11.93,0,*49
1501499218.38,26893,22.94,74788.8,12.41,11.93,11.99,0,*47
1501499219.62,26894,22.94,74788.5,12.39,11.75,11.75,0,*45
1501499220.81,26895,22.94,74794.3,12.39,11.89,11.89,0,*44
1501499222.0,26896,22.94,74790.3,12.39,12.27,12.27,0,*47
1501499223.19,26897,22.94,74788.5,12.39,11.85,11.89,0,*4A
1501499224.43,26898,22.94,74790.5,12.39,11.75,11.71,0,*4D
1501499225.68,26899,22.94,74792.3,12.39,12.09,12.09,0,*48
1501499226.92,26900,22.94,74788.0,12.39,12.05,12.05,0,*49
1501499228.16,26901,22.94,74790.5,12.39,11.95,11.95,0,*48
1501499229.4,26902,22.94,74790.8,12.37,11.85,11.95,0,*44
1501499230.68,26903,22.94,74794.3,12.37,12.09,12.09,0,*44
1501499231.92,26904,22.94,74794.3,12.39,12.05,12.17,0,*4E
1501499233.16,26905,22.94,74794.3,12.39,11.95,11.95,0,*4C
1501499234.42,26906,22.94,74788.8,12.37,11.95,11.95,0,*41
1501499235.64,26907,22.94,74794.5,12.37,11.99,11.99,0,*40
1501499236.83,26908,22.94,74794.5,12.39,11.89,11.89,0,*41
1501499238.07,26909,22.94,74794.3,12.37,11.95,11.99,0,*42
1501499239.32,26910,22.94,74792.5,12.39,12.09,12.09,0,*48
1501499240.56,26911,22.94,74794.5,12.37,11.79,11.85,0,*44
1501499241.81,26912,22.94,74792.3,12.39,12.09,12.09,0,*4A
1501499243.03,26913,22.94,74794.0,12.37,12.27,12.27,0,*45
1501499244.26,26914,22.94,74794.5,12.39,12.17,12.17,0,*4C
1501499245.51,26915,22.94,74792.3,12.39,12.29,12.29,0,*4D
1501499246.78,26916,22.94,74792.3,12.37,12.09,12.17,0,*4F
1501499247.99,26917,22.94,74792.8,12.39,11.95,11.85,0,*4E
1501499249.21,26918,22.94,74790.3,12.39,11.99,12.05,0,*46
1501499250.44,26919,22.94,74792.8,12.39,11.71,11.79,0,*49
1501499251.69,26920,22.94,74792.5,12.39,11.95,11.95,0,*4B
1501499252.93,26921,22.94,74794.8,12.39,12.29,12.37,0,*45
1501499254.15,26922,22.94,74790.3,12.39,12.27,12.37,0,*48
1501499255.39,26923,22.94,74790.8,12.37,11.99,11.95,0,*4A
1501499256.64,26924,22.94,74794.0,12.39,12.05,12.05,0,*4F
1501499257.85,26925,22.94,74788.8,12.41,11.93,11.93,0,*41
1501499259.1,26926,22.94,74794.8,12.39,11.33,11.41,0,*48
1501499260.34,26927,22.94,74794.0,12.39,11.75,11.75,0,*4C
1501499261.61,26928,22.94,74790.8,12.37,11.75,11.79,0,*41
1501499262.88,26929,22.94,74790.8,12.37,11.61,11.61,0,*4C
1501499264.12,26930,22.94,74790.5,12.39,11.71,11.71,0,*4A
1501499265.38,26931,22.94,74794.0,12.37,11.95,11.95,0,*45
1501499266.63,26932,22.94,74792.8,12.37,11.99,12.09,0,*4C
1501499267.89,26933,22.94,74792.5,12.37,11.95,11.95,0,*47
1501499269.11,26934,22.94,74794.3,12.37,12.19,12.19,0,*40
1501499270.38,26935,22.94,74794.0,12.37,12.09,12.09,0,*41
1501499271.6,26936,22.94,74792.0,12.39,12.09,12.19,0,*4D
1501499272.84,26937,22.94,74796.3,12.37,11.89,11.95,0,*4E
1501499274.03,26938,22.94,74790.3,12.39,11.85,11.89,0,*4E
1501499275.3,26939,22.94,74794.5,12.37,12.17,12.17,0,*4D
1501499276.56,26940,22.94,74794.0,12.37,12.05,12.05,0,*43
1501499277.78,26941,22.94,74792.3,12.39,12.27,12.29,0,*42
1501499279.03,26942,22.94,74794.3,12.39,12.17,12.09,0,*40
1501499280.22,26943,22.94,74794.3,12.39,12.19,12.27,0,*43
1501499281.46,26944,22.94,74794.8,12.39,12.29,12.37,0,*46
1501499282.67,26945,22.94,74796.8,12.39,12.19,12.17,0,*46
1501499283.89,26946,22.94,74792.5,12.39,11.99,12.05,0,*4D
1501499285.11,26947,22.94,74796.0,12.39,12.27,12.29,0,*44
1501499286.36,26948,22.94,74792.8,12.39,12.37,12.37,0,*45
1501499287.58,26949,22.94,74794.5,12.41,12.39,12.43,0,*46
1501499288.84,26950,22.94,74792.0,12.41,12.13,12.13,0,*43
1501499290.11,26951,22.94,74796.8,12.41,12.09,12.13,0,*49
1501499291.39,26952,22.94,74792.5,12.41,12.09,12.09,0,*41
1501499292.66,26953,22.94,74794.5,12.41,12.29,12.33,0,*4B
1501499293.94,26954,22.94,74792.8,12.41,12.09,12.09,0,*47
1501499295.16,26955,22.94,74794.8,12.41,11.89,11.93,0,*4D
1501499296.42,26956,22.94,74796.3,12.41,12.13,12.13,0,*45
1501499297.63,26957,22.94,74798.8,12.41,11.93,11.93,0,*44
1501499298.9,26958,22.94,74794.8,12.41,11.67,11.75,0,*48
1501499300.12,26959,22.94,74798.0,12.41,11.89,12.03,0,*4B
1501499301.34,26960,22.94,74792.3,12.41,11.81,11.93,0,*43
1501499302.56,26961,22.94,74798.8,12.41,11.93,11.99,0,*4B
1501499303.83,26962,22.94,74792.5,12.41,11.79,11.79,0,*42
1501499305.05,26963,22.94,74794.0,12.41,11.89,11.93,0,*48
1501499306.29,26964,22.94,74794.0,12.39,11.75,11.75,0,*4B
1501499307.52,26965,22.94,74792.5,12.39,11.71,11.75,0,*4E
1501499308.71,26966,22.94,74798.8,12.39,11.85,11.85,0,*49
1501499309.9,26967,22.94,74798.8,12.39,11.89,11.89,0,*48